Change the Weather History Date:

Sunday, January 5, 2014

  Actual Average (KRUG) Record (KRUG)
Temperature  
Mean Temperature -16 °F -  
Max Temperature -11 °F 13 °F 53 °F (2012)
Min Temperature -20 °F -3 °F -25 °F (1951)
Degree Days  
Heating Degree Days 80    
Moisture  
Dew Point -25 °F    
Average Humidity 71    
Maximum Humidity 77    
Minimum Humidity 58    
Precipitation  
Precipitation 0.00 in - - ()
Sea Level Pressure  
Sea Level Pressure 30.38 in    
Wind  
Wind Speed 20 mph (NW)    
Max Wind Speed 32 mph    
Max Gust Speed 41 mph    
Visibility 5 miles    
Events Snow    
Averages and records for this station are not official NWS values.
T = Trace of Precipitation, MM = Missing Value Source: NWS Daily Summary

Daily Weather History Graph

Daily Weather History Graph

Search for Another Location

Airport or City:

Trip Planner

Search our weather history database for the weather conditions in past years. The results will help you decide how hot, cold, wet, or windy it might be!

Date:

Astronomy

Jan. 05, 2014 Rise Set
Actual Time 8:28 AM CST 5:02 PM CST
Civil Twilight 7:52 AM CST 5:38 PM CST
Nautical Twilight 7:13 AM CST 6:17 PM CST
Astronomical Twilight 6:36 AM CST 6:54 PM CST
Moon 10:47 AM CST (1/5) 10:58 PM CST (1/5)
Length of Visible Light 9h 45m
Length of Day
8h 34m
Waxing Crescent, 25% of the Moon is Illuminated
Jan 5
Waxing Crescent
Jan 7
First Quarter
Jan 15
Full
Jan 23
Last Quarter
Jan 30
New

Hourly Weather History & Observations

Time (CST) Temp. Windchill Dew Point Humidity Pressure Visibility Wind Dir Wind Speed Gust Speed Precip Events Conditions
12:15 AM -11.2 °F -34.4 °F -18.4 °F 70% 30.24 in 10.0 mi NW 16.1 mph 21.9 mph N/A   Clear
12:35 AM - - - N/A% 30.24 in 10.0 mi WNW 13.8 mph - N/A   Scattered Clouds
12:55 AM -13.0 °F -33.4 °F -18.4 °F 77% 30.25 in 10.0 mi WNW 11.5 mph - N/A   Scattered Clouds
1:15 AM -11.2 °F -32.1 °F -18.4 °F 70% 30.25 in 10.0 mi WNW 12.7 mph - N/A   Clear
1:35 AM -13.0 °F -33.4 °F -18.4 °F 77% 30.26 in 10.0 mi WNW 11.5 mph - N/A   Clear
1:55 AM -13.0 °F -32.4 °F -20.2 °F 70% 30.26 in 10.0 mi WNW 10.4 mph - N/A   Clear
2:15 AM -13.0 °F -34.3 °F -20.2 °F 70% 30.27 in 10.0 mi WNW 12.7 mph - N/A   Partly Cloudy
2:35 AM -11.2 °F -35.8 °F -18.4 °F 70% 30.28 in 10.0 mi NW 18.4 mph - N/A   Scattered Clouds
2:55 AM -13.0 °F -36.8 °F -18.4 °F 77% 30.28 in 10.0 mi NW 16.1 mph - N/A   Mostly Cloudy
3:15 AM -13.0 °F -37.5 °F -18.4 °F 77% 30.28 in 10.0 mi NW 17.3 mph - N/A   Mostly Cloudy
3:35 AM -13.0 °F -39.4 °F -18.4 °F 77% 30.28 in 6.0 mi NW 20.7 mph - N/A   Haze
3:55 AM -13.0 °F -38.2 °F -18.4 °F 77% 30.28 in 6.0 mi NW 18.4 mph - N/A   Haze
4:15 AM -13.0 °F -37.5 °F -18.4 °F 77% 30.28 in 8.0 mi NW 17.3 mph - N/A   Scattered Clouds
4:35 AM -13.0 °F -35.2 °F -20.2 °F 70% 30.30 in 7.0 mi NNW 13.8 mph - N/A   Scattered Clouds
4:55 AM -13.0 °F -37.5 °F -20.2 °F 70% 30.30 in 10.0 mi NW 17.3 mph - N/A   Partly Cloudy
5:15 AM -13.0 °F -36.8 °F -20.2 °F 70% 30.30 in 9.0 mi NW 16.1 mph - N/A   Clear
5:35 AM -14.8 °F -39.1 °F -20.2 °F 77% 30.31 in 8.0 mi NW 16.1 mph - N/A   Clear
5:55 AM -14.8 °F -40.5 °F -20.2 °F 77% 30.32 in 7.0 mi NW 18.4 mph - N/A   Scattered Clouds
6:15 AM -14.8 °F -41.2 °F -22.0 °F 70% 30.33 in 5.0 mi NW 19.6 mph - N/A   Haze
6:35 AM -14.8 °F -41.8 °F -22.0 °F 70% 30.34 in 5.0 mi NNW 20.7 mph - N/A   Haze
6:55 AM -16.6 °F -42.9 °F -22.0 °F 76% 30.35 in 6.0 mi NNW 18.4 mph 23.0 mph N/A   Haze
7:15 AM -16.6 °F -44.1 °F -22.0 °F 76% 30.36 in 5.0 mi NNW 20.7 mph 26.5 mph N/A   Haze
7:35 AM -18.4 °F -45.2 °F -23.8 °F 76% 30.36 in 10.0 mi NW 18.4 mph - N/A   Clear
7:55 AM -18.4 °F -44.5 °F -25.6 °F 70% 30.37 in 10.0 mi NW 17.3 mph 23.0 mph N/A   Clear
8:15 AM -18.4 °F -44.5 °F -25.6 °F 70% 30.38 in 10.0 mi NW 17.3 mph 25.3 mph N/A   Clear
8:35 AM -18.4 °F -44.5 °F -25.6 °F 70% 30.39 in 10.0 mi NW 17.3 mph - N/A   Clear
8:55 AM -18.4 °F -47.1 °F -25.6 °F 70% 30.39 in 10.0 mi NW 21.9 mph - N/A   Clear
9:15 AM -18.4 °F -47.7 °F -25.6 °F 70% 30.40 in 10.0 mi NW 23.0 mph 28.8 mph N/A   Clear
9:35 AM -18.4 °F -47.1 °F -27.4 °F 63% 30.41 in 10.0 mi NW 21.9 mph 25.3 mph N/A   Clear
9:55 AM -18.4 °F -43.7 °F -27.4 °F 63% 30.43 in 10.0 mi NW 16.1 mph 25.3 mph N/A   Clear
10:15 AM -18.4 °F -47.1 °F -27.4 °F 63% 30.43 in 10.0 mi NW 21.9 mph 29.9 mph N/A   Clear
10:35 AM -18.4 °F -50.3 °F -29.2 °F 58% 30.44 in 5.0 mi NW 28.8 mph 33.4 mph N/A   Haze
10:55 AM -18.4 °F -49.4 °F -27.4 °F 63% 30.45 in 3.0 mi NW 26.5 mph 32.2 mph N/A   Haze
11:15 AM -18.4 °F -49.4 °F -29.2 °F 58% 30.45 in 4.0 mi NW 26.5 mph 34.5 mph N/A   Haze
11:35 AM -18.4 °F -50.8 °F -27.4 °F 63% 30.45 in 4.0 mi NW 29.9 mph 34.5 mph N/A   Haze
11:55 AM -18.4 °F -50.3 °F -27.4 °F 63% 30.45 in 2.5 mi NW 28.8 mph 33.4 mph N/A   Haze
12:15 PM -18.4 °F -51.7 °F -27.4 °F 63% 30.44 in 1.5 mi NW 32.2 mph 38.0 mph N/A   Haze
12:35 PM -20.2 °F -54.2 °F -27.4 °F 69% 30.43 in 1.0 mi NW 32.2 mph 39.1 mph N/A   Haze
12:55 PM -20.2 °F -49.5 °F -27.4 °F 69% 30.43 in 1.5 mi NW 21.9 mph 38.0 mph N/A   Haze
1:15 PM -18.4 °F -50.3 °F -27.4 °F 63% 30.42 in 1.8 mi NW 28.8 mph 38.0 mph N/A   Haze
1:35 PM -20.2 °F -53.3 °F -27.4 °F 69% 30.42 in 1.2 mi WNW 29.9 mph 41.4 mph N/A Snow Light Snow
1:55 PM -20.2 °F -52.3 °F -27.4 °F 69% 30.42 in 0.8 mi NW 27.6 mph 38.0 mph N/A   Haze
2:15 PM -20.2 °F -53.3 °F -25.6 °F 76% 30.43 in 0.5 mi NW 29.9 mph 35.7 mph N/A Snow Snow
2:35 PM -20.2 °F -53.7 °F -25.6 °F 76% 30.43 in 0.5 mi NW 31.1 mph 40.3 mph N/A Snow Snow
2:55 PM -20.2 °F -52.8 °F -25.6 °F 76% 30.43 in 0.8 mi NW 28.8 mph 39.1 mph N/A Snow Light Snow
3:15 PM -20.2 °F -50.7 °F -25.6 °F 76% 30.44 in 0.8 mi NW 24.2 mph 33.4 mph N/A   Haze
3:35 PM -20.2 °F -51.8 °F -27.4 °F 69% 30.43 in 0.5 mi NW 26.5 mph 36.8 mph N/A Snow Snow
3:55 PM -20.2 °F -53.7 °F -27.4 °F 69% 30.44 in 0.5 mi NW 31.1 mph 39.1 mph N/A Snow Snow
4:15 PM -20.2 °F -51.8 °F -25.6 °F 76% 30.44 in 0.8 mi NW 26.5 mph 36.8 mph N/A   Haze
4:35 PM -20.2 °F -52.3 °F -25.6 °F 76% 30.44 in 0.2 mi NW 27.6 mph 35.7 mph N/A Snow Heavy Snow
4:55 PM -20.2 °F -53.3 °F -25.6 °F 76% 30.46 in 0.2 mi NW 29.9 mph 39.1 mph N/A Snow Heavy Snow
5:15 PM -20.2 °F -51.2 °F -25.6 °F 76% 30.47 in 0.2 mi NW 25.3 mph 35.7 mph N/A Snow Heavy Snow
5:35 PM -20.2 °F -52.8 °F -27.4 °F 69% 30.46 in 1.0 mi NW 28.8 mph 33.4 mph N/A   Haze
5:55 PM -20.2 °F -51.8 °F -27.4 °F 69% 30.46 in 1.8 mi NW 26.5 mph 33.4 mph N/A   Haze
6:15 PM -20.2 °F -49.5 °F -27.4 °F 69% 30.46 in 2.5 mi NW 21.9 mph 31.1 mph N/A   Haze
6:35 PM -20.2 °F -49.5 °F -27.4 °F 69% 30.46 in 2.5 mi NW 21.9 mph 28.8 mph N/A   Haze
6:55 PM -20.2 °F -49.5 °F -27.4 °F 69% 30.45 in 2.5 mi NW 21.9 mph 31.1 mph N/A   Haze
7:15 PM -20.2 °F -50.7 °F -27.4 °F 69% 30.44 in 2.0 mi NW 24.2 mph 29.9 mph N/A   Haze
7:35 PM -20.2 °F -51.2 °F -27.4 °F 69% 30.43 in 1.8 mi NW 25.3 mph 31.1 mph N/A   Haze
7:55 PM -20.2 °F -51.2 °F -25.6 °F 76% 30.43 in 1.0 mi NW 25.3 mph 32.2 mph N/A   Haze
8:15 PM -20.2 °F -50.1 °F -25.6 °F 76% 30.43 in 1.5 mi NW 23.0 mph 33.4 mph N/A Snow Light Snow
8:35 PM -20.2 °F -50.7 °F -27.4 °F 69% 30.43 in 3.0 mi NW 24.2 mph 31.1 mph N/A   Haze
8:55 PM -20.2 °F -50.7 °F -25.6 °F 76% 30.42 in 3.0 mi NW 24.2 mph 31.1 mph N/A   Haze
9:15 PM -20.2 °F -52.8 °F -27.4 °F 69% 30.41 in 3.0 mi NW 28.8 mph 34.5 mph N/A   Haze
9:35 PM -20.2 °F -50.7 °F -27.4 °F 69% 30.41 in 2.5 mi NW 24.2 mph 31.1 mph N/A   Haze
9:55 PM -20.2 °F -51.2 °F -27.4 °F 69% 30.41 in 1.2 mi NW 25.3 mph 29.9 mph N/A Snow Light Snow
10:15 PM -20.2 °F -50.1 °F -27.4 °F 69% 30.40 in 1.2 mi NW 23.0 mph 29.9 mph N/A Snow Light Snow
10:35 PM -20.2 °F -49.5 °F -27.4 °F 69% 30.41 in 2.0 mi NW 21.9 mph 28.8 mph N/A   Haze
10:55 PM -20.2 °F -50.7 °F -27.4 °F 69% 30.40 in 5.0 mi NW 24.2 mph 27.6 mph N/A   Haze
11:15 PM -20.2 °F -50.7 °F -27.4 °F 69% 30.41 in 5.0 mi NW 24.2 mph - N/A   Haze
11:35 PM -20.2 °F -48.2 °F -27.4 °F 69% 30.40 in 5.0 mi NW 19.6 mph - N/A   Haze
11:55 PM -20.2 °F -48.2 °F -27.4 °F 69% 30.39 in 5.0 mi NW 19.6 mph 28.8 mph N/A   Haze